QPF
0.00 0.00 0.00 0.00 0.00 0.00 0.00 0.00 0.00 0.00 0.00 0.00 0.00 0.00 0.00 0.00 0.00 0.00 0.00 0.00 0.00 0.00 0.00 0.00 0.00 0.00 0.00 0.00 0.00 0.00 0.00 0.00 0.00 0.00 0.00 0.00 0.00 0.00 0.00 0.00 0.00 0.00
0.00 0.00 0.00 0.00 0.00 0.00 0.00 0.00 0.00 0.00 0.00 0.00 0.00 0.00 0.00 0.00 0.00 0.00 0.00 0.00 0.00 0.00 0.00 0.00 0.00 0.00 0.00 0.00 0.00 0.00 0.00 0.00 0.00 0.00 0.00 0.00 0.00 0.00 0.00 0.00 0.00 0.00
0.00 0.00 0.00 0.00 0.00 0.00 0.00 0.00 0.00 0.00 0.00 0.00 0.00 0.00 0.00 0.00 0.00 0.00 0.00 0.00 0.00 0.00 0.00 0.00 0.00 0.00 0.00 0.00 0.00 0.00 0.00 0.00 0.00 0.00 0.00 0.00 0.00 0.00 0.00 0.00 0.00 0.00
0.00 0.00 0.00 0.00 0.00 0.00 0.00 0.00 0.00 0.00 0.00 0.00 0.00 0.00 0.00 0.00 0.00 0.00 0.00 0.00 0.00 0.00 0.00 0.00 0.00 0.00 0.00 0.00 0.00 0.00 0.00 0.00 0.00 0.00 0.00 0.00 0.00 0.00 0.00 0.00 0.00 0.00
0.00 0.00 0.00 0.00 0.00 0.00 0.00 0.00 0.00 0.00 0.00 0.00 0.00 0.00 0.00 0.00 0.00 0.00 0.00 0.00 0.00 0.00 0.00 0.00 0.00 0.00 0.00 0.00 0.00 0.00 0.00 0.00 0.00 0.00 0.00 0.00 0.00 0.00 0.00 0.00 0.00 0.00
0.00 0.00 0.00 0.00 0.00 0.00 0.00 0.00 0.00 0.00 0.00 0.00 0.00 0.00 0.00 0.00 0.00 0.00 0.00 0.00 0.00 0.00 0.00 0.00 0.00 0.00 0.00 0.00 0.00 0.00 0.00 0.00 0.00 0.00 0.00 0.00 0.00 0.00 0.00 0.00 0.00 0.00
0.00 0.00 0.00 0.00 0.00 0.00 0.00 0.00 0.00 0.00 0.00 0.00 0.00 0.00 0.00 0.00 0.00 0.00 0.00 0.00 0.00 0.00 0.00 0.00 0.00 0.00 0.00 0.00 0.00 0.00 0.00 0.00 0.00 0.00 0.00 0.00 0.00 0.00 0.00 0.00 0.00 0.00
0.00 0.00 0.00 0.00 0.00 0.00 0.00 0.00 0.00 0.00 0.00 0.00 0.00 0.00 0.00 0.00 0.00 0.00 0.00 0.00 0.00 0.00 0.00 0.00 0.00 0.00 0.00 0.00 0.00 0.00 0.00 0.00 0.00 0.00 0.00 0.00 0.00 0.00 0.00 0.00 0.00 0.00
0.00 0.00 0.00 0.00 0.00 0.00 0.00 0.00 0.00 0.00 0.00 0.00 0.00 0.00 0.00 0.00 0.00 0.00 0.00 0.00 0.00 0.00 0.00 0.00 0.00 0.00 0.00 0.00 0.00 0.00 0.00 0.00 0.00 0.00 0.00 0.00 0.00 0.00 0.00 0.00 0.00 0.00
0.00 0.00 0.00 0.00 0.00 0.00 0.00 0.00 0.00 0.00 0.00 0.00 0.00 0.00 0.00 0.00 0.00 0.00 0.00 0.00 0.00 0.00 0.00 0.00 0.00 0.00 0.00 0.00 0.00 0.00 0.00 0.00 0.00 0.00 0.00 0.00 0.00 0.00 0.00 0.00 0.00 0.00
0.00 0.00 0.00 0.00 0.00 0.00 0.00 0.00 0.00 0.00 0.00 0.00 0.00 0.00 0.00 0.00 0.00 0.00 0.00 0.00 0.00 0.00 0.00 0.00 0.00 0.00 0.00 0.00 0.00 0.00 0.00 0.00 0.00 0.00 0.00 0.00 0.00 0.00 0.00 0.00 0.00 0.00
0.00 0.00 0.00 0.00 0.00 0.00 0.00 0.00 0.00 0.00 0.00 0.00 0.00 0.00 0.00 0.00 0.00 0.00 0.00 0.00 0.00 0.00 0.00 0.00 0.00 0.00 0.00 0.00 0.00 0.00 0.00 0.00 0.00 0.00 0.00 0.01 0.00 0.00 0.00 0.00 0.00 0.00
0.00 0.00 0.00 0.00 0.00 0.00 0.00 0.00 0.00 0.00 0.00 0.00 0.00 0.00 0.00 0.00 0.00 0.00 0.00 0.00 0.00 0.00 0.00 0.00 0.00 0.00 0.00 0.00 0.00 0.00 0.00 0.00 0.00 0.00 0.01 0.01 0.01 0.00 0.00 0.00 0.00 0.00
0.00 0.00 0.00 0.00 0.00 0.00 0.00 0.00 0.00 0.00 0.00 0.00 0.00 0.00 0.00 0.00 0.00 0.00 0.00 0.00 0.00 0.00 0.00 0.00 0.00 0.00 0.00 0.00 0.00 0.00 0.00 0.00 0.00 0.00 0.00 0.00 0.00 0.00 0.00 0.00 0.00 0.00
0.00 0.00 0.00 0.00 0.00 0.00 0.00 0.00 0.00 0.00 0.00 0.00 0.00 0.00 0.00 0.00 0.00 0.00 0.00 0.00 0.00 0.00 0.00 0.00 0.00 0.00 0.00 0.00 0.00 0.00 0.00 0.00 0.00 0.00 0.00 0.00 0.00 0.00 0.00 0.00 0.00 0.00
0.00 0.00 0.00 0.00 0.00 0.00 0.00 0.00 0.00 0.00 0.00 0.00 0.00 0.00 0.00 0.00 0.00 0.00 0.00 0.00 0.00 0.00 0.00 0.00 0.00 0.00 0.00 0.00 0.00 0.00 0.00 0.00 0.00 0.00 0.00 0.00 0.00 0.00 0.00 0.00 0.00 0.00
0.00 0.00 0.00 0.00 0.00 0.00 0.00 0.00 0.00 0.00 0.00 0.00 0.00 0.00 0.00 0.00 0.00 0.00 0.00 0.00 0.00 0.00 0.00 0.00 0.00 0.00 0.00 0.00 0.00 0.00 0.00 0.00 0.00 0.00 0.00 0.00 0.00 0.00 0.00 0.00 0.00 0.00
0.00 0.00 0.00 0.00 0.00 0.00 0.00 0.00 0.00 0.00 0.00 0.00 0.00 0.00 0.00 0.00 0.00 0.00 0.00 0.00 0.00 0.00 0.00 0.00 0.00 0.00 0.00 0.00 0.00 0.00 0.00 0.00 0.00 0.00 0.00 0.00 0.00 0.00 0.00 0.00 0.00 0.00
0.00 0.00 0.00 0.00 0.00 0.00 0.00 0.00 0.00 0.00 0.00 0.00 0.00 0.00 0.00 0.00 0.00 0.00 0.00 0.00 0.00 0.00 0.00 0.00 0.00 0.00 0.00 0.00 0.00 0.00 0.00 0.00 0.00 0.00 0.00 0.00 0.00 0.00 0.00 0.00 0.00 0.00
0.00 0.00 0.00 0.00 0.00 0.00 0.00 0.00 0.00 0.00 0.00 0.00 0.00 0.00 0.00 0.00 0.00 0.00 0.00 0.00 0.00 0.00 0.00 0.00 0.00 0.00 0.00 0.00 0.00 0.00 0.00 0.00 0.00 0.00 0.00 0.00 0.00 0.00 0.00 0.00 0.00 0.00
0.00 0.00 0.00 0.00 0.00 0.00 0.00 0.00 0.00 0.00 0.00 0.00 0.00 0.00 0.00 0.00 0.00 0.00 0.00 0.00 0.00 0.00 0.00 0.00 0.00 0.00 0.00 0.00 0.00 0.00 0.00 0.00 0.00 0.00 0.00 0.00 0.00 0.00 0.00 0.00 0.00 0.00
0.00 0.00 0.00 0.00 0.00 0.00 0.00 0.00 0.00 0.00 0.00 0.00 0.00 0.00 0.00 0.00 0.00 0.00 0.00 0.00 0.00 0.00 0.00 0.00 0.00 0.00 0.00 0.00 0.00 0.00 0.00 0.00 0.00 0.00 0.00 0.00 0.00 0.00 0.00 0.00 0.00 0.00
0.00 0.00 0.00 0.00 0.00 0.00 0.00 0.00 0.00 0.00 0.00 0.00 0.00 0.00 0.00 0.00 0.00 0.00 0.00 0.00 0.00 0.00 0.00 0.00 0.00 0.00 0.00 0.00 0.00 0.00 0.00 0.00 0.00 0.00 0.00 0.00 0.00 0.00 0.00 0.00 0.00 0.00
0.00 0.00 0.00 0.00 0.00 0.00 0.00 0.00 0.00 0.00 0.00 0.00 0.00 0.00 0.00 0.00 0.00 0.00 0.00 0.00 0.00 0.00 0.00 0.00 0.00 0.00 0.00 0.00 0.00 0.00 0.00 0.00 0.00 0.00 0.00 0.00 0.00 0.00 0.00 0.00 0.00 0.00
0.00 0.00 0.00 0.00 0.00 0.00 0.00 0.00 0.00 0.00 0.00 0.00 0.00 0.00 0.00 0.00 0.00 0.00 0.00 0.00 0.00 0.00 0.00 0.00 0.00 0.00 0.00 0.00 0.00 0.00 0.00 0.00 0.00 0.00 0.00 0.00 0.00 0.00 0.00 0.00 0.00 0.00
0.00 0.00 0.00 0.00 0.00 0.00 0.00 0.00 0.00 0.00 0.00 0.00 0.00 0.00 0.00 0.00 0.00 0.00 0.00 0.00 0.00 0.00 0.00 0.00 0.00 0.00 0.00 0.00 0.00 0.00 0.00 0.00 0.00 0.00 0.00 0.00 0.00 0.00 0.00 0.00 0.00 0.00
MSLP
1020.34 1020.42 1020.50 1020.54 1020.62 1020.66 1020.74 1020.74 1020.58 1020.62 1020.54 1020.46 1020.54 1020.46 1020.42 1020.22 1020.10 1020.02 1019.90 1019.86 1019.74 1019.58 1019.62 1019.54 1019.38 1019.26 1019.14 1018.98 1018.98 1018.94 1018.94 1018.86 1018.74 1018.54 1018.42 1018.34 1018.30 1018.18 1018.06 1017.90 1017.78 1017.78
1020.22 1020.30 1020.34 1020.34 1020.46 1020.46 1020.42 1020.38 1020.42 1020.50 1020.50 1020.46 1020.42 1020.38 1020.26 1020.14 1020.10 1019.94 1019.86 1019.78 1019.70 1019.54 1019.38 1019.30 1019.18 1019.10 1018.98 1018.90 1018.82 1018.78 1018.74 1018.66 1018.58 1018.30 1018.30 1018.22 1018.10 1017.98 1017.82 1017.70 1017.62 1017.54
1020.02 1020.10 1020.18 1020.26 1020.34 1020.26 1020.26 1020.14 1020.14 1020.22 1020.30 1020.30 1020.30 1020.30 1020.18 1019.98 1020.02 1019.74 1019.58 1019.50 1019.42 1019.30 1019.10 1018.94 1018.86 1018.74 1018.66 1018.58 1018.54 1018.50 1018.50 1018.42 1018.38 1018.10 1018.02 1017.98 1017.78 1017.70 1017.50 1017.34 1017.30 1017.26
1019.86 1019.94 1020.06 1020.10 1020.06 1020.14 1020.14 1020.10 1019.98 1020.02 1020.10 1020.26 1020.26 1020.14 1019.98 1019.86 1019.78 1019.62 1019.38 1019.22 1019.22 1019.06 1018.90 1018.74 1018.62 1018.50 1018.34 1018.26 1018.22 1018.22 1018.14 1018.06 1017.94 1017.82 1017.78 1017.62 1017.46 1017.34 1017.22 1017.10 1017.06 1017.02
1019.70 1019.78 1019.86 1019.94 1019.98 1019.98 1020.02 1020.10 1020.06 1020.02 1020.06 1020.10 1020.06 1019.94 1019.86 1019.74 1019.58 1019.46 1019.26 1019.14 1019.02 1018.94 1018.78 1018.66 1018.50 1018.38 1018.22 1018.06 1017.94 1017.90 1017.78 1017.70 1017.54 1017.46 1017.42 1017.34 1017.10 1016.98 1016.86 1016.82 1016.86 1016.82
1019.54 1019.62 1019.66 1019.78 1019.86 1019.98 1020.10 1020.10 1020.02 1019.98 1019.94 1019.94 1019.90 1019.74 1019.62 1019.46 1019.38 1019.22 1019.10 1019.02 1018.82 1018.66 1018.58 1018.42 1018.34 1018.14 1017.90 1017.74 1017.66 1017.62 1017.50 1017.42 1017.26 1017.10 1017.10 1016.98 1016.86 1016.70 1016.62 1016.54 1016.50 1016.42
1019.58 1019.58 1019.66 1019.66 1019.70 1019.74 1019.90 1019.94 1019.90 1019.86 1019.86 1019.78 1019.62 1019.50 1019.34 1019.26 1019.14 1018.98 1018.82 1018.70 1018.54 1018.38 1018.26 1018.14 1018.02 1017.86 1017.66 1017.54 1017.50 1017.42 1017.26 1017.10 1016.94 1016.82 1016.70 1016.58 1016.50 1016.50 1016.38 1016.30 1016.18 1016.10
1019.42 1019.42 1019.54 1019.58 1019.66 1019.66 1019.78 1019.78 1019.78 1019.78 1019.70 1019.58 1019.54 1019.26 1019.14 1019.06 1018.86 1018.74 1018.58 1018.46 1018.38 1018.26 1018.10 1017.90 1017.74 1017.62 1017.46 1017.38 1017.34 1017.18 1017.02 1016.82 1016.66 1016.54 1016.54 1016.46 1016.38 1016.34 1016.22 1016.02 1015.86 1015.74
1019.26 1019.34 1019.38 1019.54 1019.66 1019.62 1019.66 1019.66 1019.66 1019.66 1019.54 1019.46 1019.30 1019.14 1018.94 1018.82 1018.74 1018.62 1018.50 1018.38 1018.30 1018.14 1017.94 1017.74 1017.54 1017.42 1017.26 1017.14 1017.06 1016.94 1016.78 1016.66 1016.58 1016.66 1016.74 1016.70 1016.58 1016.46 1016.22 1015.98 1015.78 1015.54
1019.18 1019.18 1019.26 1019.42 1019.54 1019.54 1019.58 1019.54 1019.46 1019.42 1019.30 1019.26 1019.14 1018.98 1018.90 1018.70 1018.58 1018.50 1018.38 1018.26 1018.14 1017.98 1017.78 1017.62 1017.46 1017.34 1017.22 1017.14 1017.06 1016.94 1016.90 1016.94 1016.94 1016.94 1017.02 1016.98 1016.82 1016.58 1016.30 1016.06 1015.78 1015.50
1019.06 1019.02 1019.18 1019.30 1019.38 1019.34 1019.30 1019.26 1019.26 1019.22 1019.18 1019.14 1019.02 1018.90 1018.74 1018.66 1018.50 1018.26 1018.14 1018.02 1017.98 1017.86 1017.74 1017.62 1017.50 1017.34 1017.22 1017.06 1016.94 1016.98 1017.06 1017.14 1017.22 1017.26 1017.22 1017.14 1017.06 1016.86 1016.50 1016.22 1015.94 1015.70
1018.98 1018.98 1019.06 1019.14 1019.18 1019.22 1019.22 1019.18 1019.14 1019.10 1019.06 1018.90 1018.78 1018.78 1018.62 1018.46 1018.34 1018.18 1018.10 1018.14 1018.02 1017.86 1017.74 1017.58 1017.34 1017.26 1017.22 1017.26 1017.30 1017.26 1017.26 1017.38 1017.50 1017.54 1017.50 1017.42 1017.22 1016.98 1016.66 1016.30 1015.90 1015.50
1018.94 1018.90 1018.90 1018.98 1019.02 1019.06 1019.02 1018.98 1018.98 1018.90 1018.86 1018.74 1018.58 1018.54 1018.50 1018.46 1018.42 1018.42 1018.26 1018.18 1018.02 1017.86 1017.70 1017.54 1017.50 1017.46 1017.74 1017.90 1017.86 1017.86 1017.90 1017.90 1017.90 1017.90 1017.86 1017.78 1017.58 1017.26 1016.82 1016.34 1015.90 1015.50
1018.62 1018.58 1018.62 1018.70 1018.74 1018.78 1018.78 1018.74 1018.74 1018.74 1018.70 1018.70 1018.62 1018.62 1018.66 1018.62 1018.66 1018.62 1018.42 1018.26 1018.06 1017.94 1017.82 1017.74 1017.78 1018.06 1018.50 1018.50 1018.46 1018.42 1018.30 1018.22 1018.26 1018.22 1018.18 1018.02 1017.86 1017.50 1016.98 1016.42 1015.94 1015.50
1018.34 1018.34 1018.38 1018.42 1018.54 1018.58 1018.62 1018.70 1018.70 1018.70 1018.74 1018.74 1018.70 1018.70 1018.70 1018.70 1018.66 1018.58 1018.50 1018.34 1018.22 1018.18 1018.10 1018.06 1018.10 1018.78 1019.14 1019.22 1019.02 1018.82 1018.66 1018.58 1018.50 1018.34 1018.26 1018.22 1017.94 1017.54 1017.02 1016.46 1015.86 1015.38
1018.26 1018.34 1018.46 1018.46 1018.50 1018.62 1018.70 1018.74 1018.78 1018.82 1018.82 1018.78 1018.82 1018.86 1018.86 1018.82 1018.82 1018.74 1018.66 1018.58 1018.50 1018.42 1018.34 1018.34 1018.62 1019.58 1020.02 1019.90 1019.82 1019.54 1019.14 1018.94 1018.66 1018.58 1018.58 1018.38 1018.02 1017.46 1016.94 1016.38 1015.82 1015.30
1018.22 1018.38 1018.38 1018.58 1018.62 1018.58 1018.70 1018.82 1018.90 1018.86 1018.86 1018.98 1019.06 1019.10 1019.06 1018.98 1019.02 1018.98 1018.90 1018.86 1018.74 1018.62 1018.70 1018.70 1019.90 1020.66 1020.74 1020.38 1020.06 1019.90 1019.66 1019.34 1019.10 1018.90 1018.70 1018.46 1018.14 1017.78 1017.22 1016.54 1016.06 1015.82
1018.34 1018.38 1018.46 1018.54 1018.70 1018.82 1018.86 1018.90 1018.90 1019.02 1019.26 1019.34 1019.30 1019.30 1019.26 1019.22 1019.22 1019.22 1019.10 1018.98 1018.90 1018.86 1018.94 1019.26 1020.94 1021.18 1020.74 1020.62 1020.46 1020.14 1020.02 1019.82 1019.42 1019.02 1018.86 1018.66 1018.34 1017.90 1017.30 1016.94 1016.70 1016.42
1018.38 1018.62 1018.70 1018.82 1018.98 1019.02 1019.06 1019.02 1019.22 1019.50 1019.58 1019.54 1019.54 1019.46 1019.46 1019.50 1019.46 1019.42 1019.30 1019.14 1019.14 1019.18 1019.22 1020.22 1021.26 1021.46 1021.14 1020.82 1020.58 1020.58 1020.42 1019.94 1019.50 1019.42 1019.22 1018.98 1018.54 1018.02 1017.58 1017.22 1016.94 1016.62
1018.50 1018.70 1018.90 1019.02 1019.14 1019.22 1019.30 1019.42 1019.70 1019.86 1019.86 1019.74 1019.74 1019.70 1019.78 1019.78 1019.66 1019.58 1019.46 1019.46 1019.46 1019.54 1019.58 1021.10 1021.50 1021.78 1021.30 1021.26 1021.30 1020.98 1020.50 1020.02 1019.74 1019.74 1019.54 1019.18 1018.78 1018.34 1017.94 1017.54 1017.14 1016.82
1018.78 1018.90 1019.22 1019.42 1019.50 1019.54 1019.66 1019.86 1020.06 1020.14 1020.06 1019.98 1020.02 1020.10 1020.06 1020.02 1019.86 1019.78 1019.78 1019.74 1019.74 1019.74 1019.94 1021.62 1022.06 1021.94 1021.78 1021.74 1021.54 1021.06 1020.50 1020.14 1020.06 1020.02 1019.74 1019.30 1018.98 1018.58 1018.06 1017.66 1017.18 1016.78
1018.90 1019.34 1019.62 1019.74 1019.86 1019.86 1020.10 1020.30 1020.38 1020.34 1020.30 1020.30 1020.38 1020.34 1020.22 1020.06 1020.02 1020.06 1020.06 1020.06 1020.06 1020.06 1020.18 1021.50 1022.34 1022.22 1022.14 1021.98 1021.62 1021.30 1021.02 1020.70 1020.50 1020.14 1019.70 1019.30 1018.86 1018.46 1018.02 1017.66 1017.34 1016.90
1019.38 1019.66 1019.98 1020.14 1020.14 1020.34 1020.54 1020.62 1020.58 1020.50 1020.54 1020.62 1020.70 1020.54 1020.38 1020.34 1020.34 1020.34 1020.38 1020.38 1020.38 1020.38 1020.50 1021.38 1022.38 1022.62 1022.34 1022.02 1021.98 1021.90 1021.50 1021.18 1020.74 1020.26 1019.86 1019.50 1019.06 1018.74 1018.50 1018.14 1017.78 1017.26
1019.74 1020.06 1020.34 1020.46 1020.50 1020.74 1020.86 1020.82 1020.70 1020.74 1020.90 1020.94 1020.90 1020.70 1020.66 1020.66 1020.62 1020.74 1020.74 1020.70 1020.74 1020.82 1020.98 1021.26 1022.54 1022.70 1022.34 1022.34 1022.34 1022.26 1022.06 1021.70 1021.22 1020.82 1020.50 1020.18 1019.78 1019.42 1019.10 1018.58 1017.90 1017.26
1020.10 1020.42 1020.62 1020.70 1020.78 1020.98 1021.02 1021.02 1020.98 1021.10 1021.22 1021.10 1021.02 1020.98 1021.02 1021.06 1021.22 1021.18 1021.18 1021.14 1021.18 1021.34 1021.30 1021.38 1021.78 1022.50 1022.54 1022.58 1022.54 1022.58 1022.42 1022.26 1021.86 1021.46 1021.18 1020.90 1020.54 1019.82 1019.10 1018.54 1017.94 1017.38
1020.34 1020.66 1020.82 1020.90 1021.06 1021.14 1021.10 1021.10 1021.14 1021.30 1021.42 1021.34 1021.38 1021.42 1021.66 1021.78 1021.70 1021.62 1021.62 1021.62 1021.78 1021.78 1021.78 1021.78 1021.90 1022.18 1022.70 1022.74 1022.78 1022.90 1022.94 1022.70 1022.34 1021.98 1021.58 1020.98 1020.42 1019.90 1019.10 1018.46 1017.98 1017.42
Thickness
5619 5618 5616 5615 5614 5613 5612 5611 5610 5609 5608 5607 5605 5604 5604 5603 5602 5601 5600 5599 5598 5597 5595 5593 5592 5590 5589 5588 5586 5583 5582 5579 5578 5578 5576 5575 5573 5571 5571 5569 5568 5565
5619 5618 5616 5615 5614 5612 5612 5611 5609 5608 5606 5605 5603 5602 5602 5601 5600 5599 5598 5596 5595 5594 5593 5591 5590 5589 5586 5585 5583 5581 5579 5576 5575 5574 5573 5571 5569 5568 5567 5566 5564 5562
5619 5618 5616 5614 5613 5612 5611 5611 5609 5607 5605 5604 5602 5600 5600 5599 5597 5597 5596 5595 5594 5592 5592 5590 5589 5587 5585 5583 5581 5579 5577 5574 5572 5572 5570 5568 5567 5565 5564 5562 5561 5558
5619 5617 5616 5614 5613 5612 5610 5609 5608 5606 5604 5601 5600 5599 5598 5597 5595 5595 5594 5593 5591 5590 5589 5588 5586 5585 5583 5581 5579 5577 5575 5573 5571 5570 5567 5566 5565 5563 5561 5559 5556 5554
5618 5617 5615 5613 5612 5610 5608 5607 5605 5604 5602 5599 5598 5597 5595 5594 5593 5593 5592 5590 5589 5588 5586 5585 5583 5581 5580 5578 5577 5575 5573 5571 5569 5568 5565 5563 5562 5560 5559 5556 5552 5550
5617 5616 5614 5611 5610 5608 5605 5604 5602 5601 5599 5597 5596 5595 5593 5592 5591 5590 5589 5588 5587 5586 5584 5582 5580 5579 5577 5576 5574 5571 5570 5568 5567 5565 5563 5561 5559 5557 5555 5552 5549 5547
5615 5614 5612 5610 5608 5606 5603 5601 5600 5598 5597 5595 5594 5593 5592 5591 5590 5589 5588 5586 5585 5584 5582 5580 5578 5577 5575 5573 5570 5568 5567 5565 5564 5563 5560 5559 5556 5554 5551 5549 5546 5544
5614 5612 5610 5607 5605 5603 5601 5599 5597 5595 5594 5593 5593 5591 5591 5589 5588 5587 5586 5584 5582 5580 5579 5578 5576 5574 5572 5569 5567 5565 5564 5562 5561 5559 5556 5554 5552 5549 5547 5545 5543 5541
5612 5610 5608 5605 5602 5600 5598 5596 5594 5593 5591 5590 5590 5589 5588 5587 5586 5584 5582 5581 5579 5577 5576 5575 5572 5571 5569 5566 5564 5562 5561 5559 5556 5553 5549 5546 5544 5542 5540 5539 5538 5536
5610 5608 5605 5602 5600 5597 5596 5594 5592 5591 5589 5588 5587 5586 5585 5584 5582 5581 5579 5578 5576 5575 5573 5571 5569 5567 5565 5563 5560 5557 5555 5552 5549 5546 5541 5537 5535 5534 5533 5531 5530 5529
5608 5606 5604 5600 5597 5595 5594 5592 5590 5588 5587 5585 5584 5583 5582 5581 5580 5579 5577 5575 5573 5572 5570 5568 5566 5563 5560 5559 5556 5552 5549 5545 5541 5536 5533 5529 5527 5525 5524 5523 5522 5520
5605 5603 5601 5598 5595 5593 5591 5589 5588 5586 5584 5583 5582 5581 5580 5578 5577 5576 5574 5572 5569 5568 5566 5563 5561 5558 5555 5552 5549 5545 5540 5536 5531 5526 5522 5520 5518 5516 5516 5515 5514 5513
5603 5601 5599 5596 5593 5590 5589 5588 5586 5584 5583 5581 5580 5579 5577 5575 5573 5571 5569 5567 5565 5563 5560 5558 5555 5550 5546 5542 5538 5534 5530 5526 5521 5517 5513 5510 5508 5507 5506 5507 5506 5506
5602 5600 5598 5595 5593 5590 5588 5586 5584 5582 5580 5578 5577 5575 5572 5570 5568 5566 5564 5562 5560 5557 5554 5551 5546 5540 5535 5531 5528 5524 5520 5516 5512 5508 5505 5502 5500 5499 5499 5499 5499 5498
5600 5598 5596 5593 5591 5588 5586 5583 5581 5579 5577 5575 5573 5571 5568 5566 5563 5562 5559 5557 5553 5550 5546 5542 5538 5530 5524 5521 5518 5516 5512 5509 5504 5501 5498 5495 5494 5493 5492 5492 5492 5492
5598 5595 5593 5589 5587 5585 5582 5580 5578 5576 5573 5571 5569 5566 5564 5561 5559 5556 5553 5549 5546 5543 5539 5535 5529 5520 5514 5511 5509 5505 5503 5500 5497 5493 5489 5486 5485 5485 5485 5485 5485 5485
5596 5593 5590 5587 5585 5582 5580 5577 5574 5572 5570 5567 5564 5561 5559 5556 5553 5549 5546 5542 5540 5537 5533 5528 5518 5509 5505 5503 5500 5497 5494 5491 5488 5484 5481 5478 5476 5474 5475 5476 5474 5472
5593 5591 5588 5585 5582 5579 5576 5574 5571 5568 5565 5561 5559 5556 5553 5550 5546 5543 5540 5537 5535 5531 5527 5519 5507 5500 5498 5495 5492 5489 5484 5481 5478 5476 5473 5470 5467 5466 5465 5464 5462 5459
5591 5588 5584 5581 5578 5574 5571 5569 5566 5562 5559 5556 5554 5550 5547 5544 5540 5538 5535 5532 5528 5525 5519 5510 5498 5493 5492 5488 5484 5480 5476 5473 5471 5467 5464 5460 5458 5457 5455 5452 5449 5447
5588 5584 5580 5576 5573 5570 5567 5565 5560 5556 5554 5550 5547 5544 5541 5538 5535 5533 5530 5526 5522 5517 5510 5501 5491 5487 5484 5480 5475 5471 5468 5467 5463 5458 5454 5451 5448 5446 5443 5441 5438 5435
5584 5580 5575 5571 5568 5565 5563 5558 5554 5551 5548 5545 5542 5538 5535 5533 5530 5527 5523 5518 5515 5510 5503 5493 5484 5480 5476 5471 5468 5465 5462 5460 5455 5450 5447 5443 5440 5436 5433 5430 5427 5424
5580 5575 5570 5567 5564 5560 5556 5551 5548 5545 5543 5539 5536 5533 5531 5528 5525 5520 5516 5512 5507 5503 5497 5486 5477 5472 5469 5464 5461 5458 5454 5450 5446 5442 5440 5437 5433 5429 5424 5420 5415 5410
5575 5570 5565 5561 5558 5554 5549 5545 5543 5541 5537 5534 5530 5528 5526 5522 5518 5514 5509 5505 5500 5495 5490 5480 5470 5465 5462 5458 5453 5449 5445 5442 5438 5435 5431 5427 5424 5418 5411 5407 5402 5396
5569 5564 5559 5554 5552 5548 5543 5541 5539 5535 5532 5528 5525 5523 5520 5516 5512 5507 5502 5498 5493 5488 5482 5474 5465 5459 5456 5451 5445 5440 5436 5432 5428 5425 5420 5414 5411 5406 5399 5394 5389 5383
5564 5559 5554 5551 5547 5543 5539 5537 5534 5530 5526 5523 5520 5517 5513 5508 5504 5500 5495 5491 5485 5479 5475 5469 5461 5455 5449 5443 5437 5431 5425 5420 5416 5413 5408 5401 5395 5392 5389 5383 5375 5368
5561 5555 5552 5547 5542 5539 5537 5533 5530 5526 5521 5519 5515 5510 5505 5501 5496 5493 5488 5483 5477 5471 5467 5461 5455 5449 5442 5435 5428 5420 5414 5409 5404 5399 5396 5391 5384 5378 5374 5370 5362 5354